User: anonymous   Login
Location: Columbia
(38.9520°N, 92.3340°W)
Time: 12:31:52
(UTC-06:00)
Language:

Iridium 22 - Orbit

View from above orbital plane
View from above orbital plane
View from above satellite
View from above satellite

Ground track
Ground track

The orbit data is extracted from the following two-line orbital elements,

1 24907U 97043E   16036.60264333  .00000249  00000-0  81680-4 0  9990
2 24907  86.3972 104.0978 0002131  98.2513 261.8925 14.34213633966502
Epoch (UTC): 05 February 2016 14:27:48
Eccentricity: 0.0002131
inclination: 86.3972°
perigee height: 776 km
apogee height: 779 km
right ascension of ascending node: 104.0978°
argument of perigee: 98.2513°
revolutions per day: 14.34213633
mean anomaly at epoch: 261.8925°
orbit number at epoch: 96650

The dashed part of the orbit path shows where the satellite is in the earth's shadow,  

DLR